星链-2634 (STARLINK-2634 )

导读 | 星芒AI

STARLINK-2634 是 SpaceX 星链计划中的一颗低轨通信卫星,属于第26组星链卫星的一部分。该卫星于2023年发射,旨在为全球用户提供高速互联网服务。它运行在约550公里高的近地轨道,采用先进的相控阵天线和激光通信技术,以提升网络连接的稳定性和传输速度。作为星链星座的重要成员,STARLINK-2634 有助于扩大覆盖范围,特别是在偏远和网络基础设施薄弱的地区。

基本信息
目录编号:
48445
目录名称:
STARLINK-2634
国际标识:
2021-040T
轨道中心:
EARTH
卫星名称:
星链-2634
卫星全名:
星链-2634 (STARLINK-2634 )
卫星状态:
在轨 (已飞行1684 天)
发射日期:
2021-05-09 UTC
国别 :
美国 (US)
星等 :
--
轨道信息
数据来源 国际轨道数据 AOE轨道数据
星历时间 2025-12-18T01:23:25+0800
18小时前
查看轨道信息
2025-12-15T20:00:00+0800
2天前
查看轨道信息
半长轴 6925.351km 6925.365km
偏心率 0.0001456 0.0001491
轨道倾角 53.053° 53.051°
近地点辐角 86.487° 68.308°
升交点赤经 189.575° 199.564°
平近点角 273.629° 101.113°
近地点 546.207km 546.197km
远地点 548.225km 548.263km
周期 95.592分钟 95.592分钟
每日圈数 15.063995 15.063948
详细信息
固有亮度:
5
最大亮度:
2.5
卫星平台:
Starlink V1.0
覆盖范围:
全球
运营商:
太空探索技术公司
运营商所在国:
美国
制造商(研发单位):
太空探索技术公司
制造商所在国:
美国
使用方式:
暂无
卫星简介
星链(Starlink)计划是由太空探索技术公司(SpaceX)提出的一个巨型低轨卫星互联网星座项目,计划在2019年至2024年间在太空搭建由约1.2万颗卫星组成的“星链”网络,其中1584颗将部署在地球上空550千米处的近地轨道,并从2020年开始工作。该卫星仍在工作。
2D轨道图
3D轨道图
轨道高度分析图
轨道倾角分析图
轨道综合分析图
查看轨道综合分析图